カタログに戻る

STARLINK-31032

運用中通信VLEO
NORAD 58535·PAYLOAD·🇺🇸 United States

打ち上げ Dec 8, 2023 から Vandenberg Space Force Base

Loading…

次のパス (今後24時間)

TLE

最新Source: CelesTrak SupGP

元期: Sep 14, 2026, 22:10 UTC

1 58535C 23192E   26257.92409722  .00044739  00000+0  13221-2 0  2574
2 58535  53.1571 259.4391 0001195  88.0003 107.3934 15.34361461    10

AllMySatでSTARLINK-31032をリアルタイム追跡

Download on the App Store